星链-1398 (STARLINK-1398 )

导读 | 豆包AI

STARLINK-1398是美国太空探索技术公司Starlink星座中的一颗卫星,于2020年6月4日发射入轨。Starlink星座旨在为全球提供高速卫星互联网服务,该卫星承担信号转发与网络覆盖任务,运行在近地轨道,支撑星座的全球互联服务布局,是Starlink组网进程中较早入轨的组成单元之一。

基本信息
目录编号:
45699
目录名称:
STARLINK-1398
国际标识:
2020-035AU
轨道中心:
EARTH
卫星名称:
星链-1398
卫星全名:
星链-1398 (STARLINK-1398 )
卫星状态:
已陨落 最后检测时间 2026-03-28
发射日期:
2020-06-04 UTC
国别 :
美国 (US)
星等 :
--
轨道信息
数据来源 国际轨道数据
星历时间: 2026-03-28T20:53:48+0800
轨道信息已过期31天
半长轴: 6524.233km
偏心率: 0.000424
轨道倾角: 53.020°
近地点辐角 298.857°
升交点赤经 200.629°
平近点角 61.205°
近地点: 143.329km
远地点: 148.863km
周期: 87.409分钟
每日圈数: 16.474361
详细信息
固有亮度:
5
最大亮度:
2.5
卫星平台:
Starlink V1.0
覆盖范围:
全球
运营商:
太空探索技术公司
运营商所在国:
美国
制造商(研发单位):
太空探索技术公司
制造商所在国:
美国
使用方式:
暂无
卫星简介
星链(Starlink)计划是由太空探索技术公司(SpaceX)提出的一个巨型低轨卫星互联网星座项目,计划在2019年至2024年间在太空搭建由约1.2万颗卫星组成的“星链”网络,其中1584颗将部署在地球上空550千米处的近地轨道,并从2020年开始工作。该卫星仍在工作。